#datetime,building,power
2022-02-12T00:00:00,rvs,24.85
2022-02-12T00:01:00,rvs,24.66
2022-02-12T00:02:00,rvs,20.38
2022-02-12T00:03:00,rvs,19.44
2022-02-12T00:04:00,rvs,19.55
2022-02-12T00:05:00,rvs,15.76
2022-02-12T00:06:00,rvs,15.58
2022-02-12T00:07:00,rvs,19.86
2022-02-12T00:08:00,rvs,19.84
2022-02-12T00:09:00,rvs,20.21
2022-02-12T00:10:00,rvs,20.32
2022-02-12T00:11:00,rvs,19.39
2022-02-12T00:12:00,rvs,20.01
2022-02-12T00:13:00,rvs,21.27
2022-02-12T00:14:00,rvs,16.01
2022-02-12T00:15:00,rvs,15.32
2022-02-12T00:16:00,rvs,18.68
2022-02-12T00:17:00,rvs,19.45
2022-02-12T00:18:00,rvs,15.55
2022-02-12T00:19:00,rvs,16.29
2022-02-12T00:20:00,rvs,15.32
2022-02-12T00:21:00,rvs,14.63
2022-02-12T00:22:00,rvs,15.33
2022-02-12T00:23:00,rvs,13.90
2022-02-12T00:24:00,rvs,15.10
2022-02-12T00:25:00,rvs,18.22
2022-02-12T00:26:00,rvs,18.85
2022-02-12T00:27:00,rvs,23.64
2022-02-12T00:28:00,rvs,25.95
2022-02-12T00:29:00,rvs,23.89
2022-02-12T00:30:00,rvs,31.10
2022-02-12T00:31:00,rvs,27.12
2022-02-12T00:32:00,rvs,32.86
2022-02-12T00:33:00,rvs,39.85
2022-02-12T00:34:00,rvs,29.92
2022-02-12T00:35:00,rvs,30.35
2022-02-12T00:36:00,rvs,30.58
2022-02-12T00:37:00,rvs,23.02
2022-02-12T00:38:00,rvs,23.00
2022-02-12T00:39:00,rvs,23.89
2022-02-12T00:40:00,rvs,24.92
2022-02-12T00:41:00,rvs,29.71
2022-02-12T00:42:00,rvs,29.37
2022-02-12T00:43:00,rvs,29.72
2022-02-12T00:44:00,rvs,25.36
2022-02-12T00:45:00,rvs,24.91
2022-02-12T00:46:00,rvs,24.49
2022-02-12T00:47:00,rvs,23.35
2022-02-12T00:48:00,rvs,23.43
2022-02-12T00:49:00,rvs,17.97
2022-02-12T00:50:00,rvs,18.13
2022-02-12T00:51:00,rvs,18.20
2022-02-12T00:52:00,rvs,18.32
2022-02-12T00:53:00,rvs,18.40
2022-02-12T00:54:00,rvs,18.59
2022-02-12T00:55:00,rvs,20.07
2022-02-12T00:56:00,rvs,20.50
2022-02-12T00:57:00,rvs,19.48
2022-02-12T00:58:00,rvs,24.17
2022-02-12T00:59:00,rvs,25.94
2022-02-12T01:00:00,rvs,26.26
2022-02-12T01:01:00,rvs,25.66
2022-02-12T01:02:00,rvs,25.97
2022-02-12T01:03:00,rvs,23.89
2022-02-12T01:04:00,rvs,24.31
2022-02-12T01:05:00,rvs,22.54
2022-02-12T01:06:00,rvs,35.55
2022-02-12T01:07:00,rvs,40.55
2022-02-12T01:08:00,rvs,42.69
2022-02-12T01:09:00,rvs,45.77
2022-02-12T01:10:00,rvs,47.27
2022-02-12T01:11:00,rvs,49.29
2022-02-12T01:12:00,rvs,49.48
2022-02-12T01:13:00,rvs,50.52
2022-02-12T01:14:00,rvs,53.29
2022-02-12T01:15:00,rvs,18.82
2022-02-12T01:16:00,rvs,23.34
2022-02-12T01:17:00,rvs,24.83
2022-02-12T01:18:00,rvs,26.12
2022-02-12T01:19:00,rvs,31.63
2022-02-12T01:20:00,rvs,31.33
2022-02-12T01:21:00,rvs,29.47
2022-02-12T01:22:00,rvs,29.26
2022-02-12T01:23:00,rvs,39.75
2022-02-12T01:24:00,rvs,51.96
2022-02-12T01:25:00,rvs,51.63
2022-02-12T01:26:00,rvs,50.51
2022-02-12T01:27:00,rvs,39.60
2022-02-12T01:28:00,rvs,37.76
2022-02-12T01:29:00,rvs,39.21
2022-02-12T01:30:00,rvs,29.13
2022-02-12T01:31:00,rvs,29.19
2022-02-12T01:32:00,rvs,23.02
2022-02-12T01:33:00,rvs,23.82
2022-02-12T01:34:00,rvs,27.63
2022-02-12T01:35:00,rvs,25.70
2022-02-12T01:36:00,rvs,29.73
2022-02-12T01:37:00,rvs,30.45
2022-02-12T01:38:00,rvs,34.08
2022-02-12T01:39:00,rvs,42.01
2022-02-12T01:40:00,rvs,39.44
2022-02-12T01:41:00,rvs,35.64
2022-02-12T01:42:00,rvs,38.45
2022-02-12T01:43:00,rvs,31.47
2022-02-12T01:44:00,rvs,37.28
2022-02-12T01:45:00,rvs,31.75
2022-02-12T01:46:00,rvs,19.80
2022-02-12T01:47:00,rvs,21.92
2022-02-12T01:48:00,rvs,27.24
2022-02-12T01:49:00,rvs,19.76
2022-02-12T01:50:00,rvs,21.72
2022-02-12T01:51:00,rvs,25.38
2022-02-12T01:52:00,rvs,19.39
2022-02-12T01:53:00,rvs,27.25
2022-02-12T01:54:00,rvs,19.95
2022-02-12T01:55:00,rvs,31.25
2022-02-12T01:56:00,rvs,29.57
2022-02-12T01:57:00,rvs,18.81
2022-02-12T01:58:00,rvs,21.78
2022-02-12T01:59:00,rvs,21.46
2022-02-12T02:00:00,rvs,9.03
2022-02-12T02:01:00,rvs,15.81
2022-02-12T02:02:00,rvs,8.87
2022-02-12T02:03:00,rvs,18.81
2022-02-12T02:04:00,rvs,23.21
2022-02-12T02:05:00,rvs,19.17
2022-02-12T02:06:00,rvs,28.13
2022-02-12T02:07:00,rvs,22.79
2022-02-12T02:08:00,rvs,21.29
2022-02-12T02:09:00,rvs,27.02
2022-02-12T02:10:00,rvs,18.90
2022-02-12T02:11:00,rvs,24.65
2022-02-12T02:12:00,rvs,25.89
2022-02-12T02:13:00,rvs,18.30
2022-02-12T02:14:00,rvs,18.40
2022-02-12T02:15:00,rvs,17.54
2022-02-12T02:16:00,rvs,18.62
2022-02-12T02:17:00,rvs,20.73
2022-02-12T02:18:00,rvs,21.72
2022-02-12T02:19:00,rvs,17.75
2022-02-12T02:20:00,rvs,19.91
2022-02-12T02:21:00,rvs,19.13
2022-02-12T02:22:00,rvs,19.85
2022-02-12T02:23:00,rvs,22.13
2022-02-12T02:24:00,rvs,22.81
2022-02-12T02:25:00,rvs,17.71
2022-02-12T02:26:00,rvs,18.68
2022-02-12T02:27:00,rvs,16.88
2022-02-12T02:28:00,rvs,20.66
2022-02-12T02:29:00,rvs,20.59
2022-02-12T02:30:00,rvs,20.80
2022-02-12T02:31:00,rvs,20.81
2022-02-12T02:32:00,rvs,9.07
2022-02-12T02:33:00,rvs,8.83
2022-02-12T02:34:00,rvs,8.89
2022-02-12T02:35:00,rvs,8.88
2022-02-12T02:36:00,rvs,9.03
2022-02-12T02:37:00,rvs,9.04
2022-02-12T02:38:00,rvs,9.45
2022-02-12T02:39:00,rvs,9.20
2022-02-12T02:40:00,rvs,9.00
2022-02-12T02:41:00,rvs,9.05
2022-02-12T02:42:00,rvs,8.72
2022-02-12T02:43:00,rvs,8.79
2022-02-12T02:44:00,rvs,12.30
2022-02-12T02:45:00,rvs,13.23
2022-02-12T02:46:00,rvs,13.73
2022-02-12T02:47:00,rvs,14.60
2022-02-12T02:48:00,rvs,14.21
2022-02-12T02:49:00,rvs,12.98
2022-02-12T02:50:00,rvs,14.68
2022-02-12T02:51:00,rvs,8.99
2022-02-12T02:52:00,rvs,9.33
2022-02-12T02:53:00,rvs,9.55
2022-02-12T02:54:00,rvs,9.92
2022-02-12T02:55:00,rvs,9.04
2022-02-12T02:56:00,rvs,9.05
2022-02-12T02:57:00,rvs,8.99
2022-02-12T02:58:00,rvs,9.02
2022-02-12T02:59:00,rvs,9.86
2022-02-12T03:00:00,rvs,9.12
2022-02-12T03:01:00,rvs,9.34
2022-02-12T03:02:00,rvs,9.20
2022-02-12T03:03:00,rvs,9.08
2022-02-12T03:04:00,rvs,9.66
2022-02-12T03:05:00,rvs,12.48
2022-02-12T03:06:00,rvs,14.13
2022-02-12T03:07:00,rvs,26.47
2022-02-12T03:08:00,rvs,29.89
2022-02-12T03:09:00,rvs,30.69
2022-02-12T03:10:00,rvs,27.77
2022-02-12T03:11:00,rvs,28.88
2022-02-12T03:12:00,rvs,33.19
2022-02-12T03:13:00,rvs,21.05
2022-02-12T03:14:00,rvs,21.11
2022-02-12T03:15:00,rvs,17.71
2022-02-12T03:16:00,rvs,24.09
2022-02-12T03:17:00,rvs,25.12
2022-02-12T03:18:00,rvs,26.07
2022-02-12T03:19:00,rvs,26.68
2022-02-12T03:20:00,rvs,17.93
2022-02-12T03:21:00,rvs,19.20
2022-02-12T03:22:00,rvs,19.52
2022-02-12T03:23:00,rvs,22.18
2022-02-12T03:24:00,rvs,23.72
2022-02-12T03:25:00,rvs,23.74
2022-02-12T03:26:00,rvs,23.45
2022-02-12T03:27:00,rvs,19.16
2022-02-12T03:28:00,rvs,17.72
2022-02-12T03:29:00,rvs,17.56
2022-02-12T03:30:00,rvs,17.15
2022-02-12T03:31:00,rvs,17.77
2022-02-12T03:32:00,rvs,17.04
2022-02-12T03:33:00,rvs,19.06
2022-02-12T03:34:00,rvs,20.36
2022-02-12T03:35:00,rvs,18.60
2022-02-12T03:36:00,rvs,22.27
2022-02-12T03:37:00,rvs,22.29
2022-02-12T03:38:00,rvs,20.35
2022-02-12T03:39:00,rvs,14.76
2022-02-12T03:40:00,rvs,14.78
2022-02-12T03:41:00,rvs,14.39
2022-02-12T03:42:00,rvs,14.26
2022-02-12T03:43:00,rvs,13.09
2022-02-12T03:44:00,rvs,12.58
2022-02-12T03:45:00,rvs,13.96
2022-02-12T03:46:00,rvs,14.81
2022-02-12T03:47:00,rvs,11.63
2022-02-12T03:48:00,rvs,12.45
2022-02-12T03:49:00,rvs,13.10
2022-02-12T03:50:00,rvs,18.13
2022-02-12T03:51:00,rvs,16.23
2022-02-12T03:52:00,rvs,25.72
2022-02-12T03:53:00,rvs,28.19
2022-02-12T03:54:00,rvs,29.07
2022-02-12T03:55:00,rvs,32.28
2022-02-12T03:56:00,rvs,32.87
2022-02-12T03:57:00,rvs,33.46
2022-02-12T03:58:00,rvs,30.86
2022-02-12T03:59:00,rvs,23.35
2022-02-12T04:00:00,rvs,23.99
2022-02-12T04:01:00,rvs,25.88
2022-02-12T04:02:00,rvs,25.53
2022-02-12T04:03:00,rvs,25.90
2022-02-12T04:04:00,rvs,24.55
2022-02-12T04:05:00,rvs,28.77
2022-02-12T04:06:00,rvs,30.50
2022-02-12T04:07:00,rvs,29.45
2022-02-12T04:08:00,rvs,30.65
2022-02-12T04:09:00,rvs,25.05
2022-02-12T04:10:00,rvs,26.96
2022-02-12T04:11:00,rvs,21.95
2022-02-12T04:12:00,rvs,17.61
2022-02-12T04:13:00,rvs,17.97
2022-02-12T04:14:00,rvs,20.48
2022-02-12T04:15:00,rvs,18.27
2022-02-12T04:16:00,rvs,23.07
2022-02-12T04:17:00,rvs,22.83
2022-02-12T04:18:00,rvs,17.58
2022-02-12T04:19:00,rvs,17.86
2022-02-12T04:20:00,rvs,16.54
2022-02-12T04:21:00,rvs,12.93
2022-02-12T04:22:00,rvs,13.33
2022-02-12T04:23:00,rvs,20.63
2022-02-12T04:24:00,rvs,22.10
2022-02-12T04:25:00,rvs,18.84
2022-02-12T04:26:00,rvs,20.45
2022-02-12T04:27:00,rvs,32.48
2022-02-12T04:28:00,rvs,35.31
2022-02-12T04:29:00,rvs,35.72
2022-02-12T04:30:00,rvs,23.23
2022-02-12T04:31:00,rvs,23.60
2022-02-12T04:32:00,rvs,22.10
2022-02-12T04:33:00,rvs,22.30
2022-02-12T04:34:00,rvs,25.75
2022-02-12T04:35:00,rvs,23.21
2022-02-12T04:36:00,rvs,20.10
2022-02-12T04:37:00,rvs,21.01
2022-02-12T04:38:00,rvs,20.26
2022-02-12T04:39:00,rvs,19.27
2022-02-12T04:40:00,rvs,18.94
2022-02-12T04:41:00,rvs,18.65
2022-02-12T04:42:00,rvs,18.68
2022-02-12T04:43:00,rvs,18.79
2022-02-12T04:44:00,rvs,18.23
2022-02-12T04:45:00,rvs,19.33
2022-02-12T04:46:00,rvs,22.68
2022-02-12T04:47:00,rvs,18.37
2022-02-12T04:48:00,rvs,19.75
2022-02-12T04:49:00,rvs,20.82
2022-02-12T04:50:00,rvs,20.81
2022-02-12T04:51:00,rvs,18.88
2022-02-12T04:52:00,rvs,19.30
2022-02-12T04:53:00,rvs,19.33
2022-02-12T04:54:00,rvs,19.17
2022-02-12T04:55:00,rvs,18.79
2022-02-12T04:56:00,rvs,18.90
2022-02-12T04:57:00,rvs,19.00
2022-02-12T04:58:00,rvs,13.86
2022-02-12T04:59:00,rvs,14.53
2022-02-12T05:00:00,rvs,13.95
2022-02-12T05:01:00,rvs,14.64
2022-02-12T05:02:00,rvs,18.14
2022-02-12T05:03:00,rvs,21.49
2022-02-12T05:04:00,rvs,25.76
2022-02-12T05:05:00,rvs,28.48
2022-02-12T05:06:00,rvs,28.70
2022-02-12T05:07:00,rvs,27.22
2022-02-12T05:08:00,rvs,26.09
2022-02-12T05:09:00,rvs,24.68
2022-02-12T05:10:00,rvs,22.92
2022-02-12T05:11:00,rvs,22.64
2022-02-12T05:12:00,rvs,22.80
2022-02-12T05:13:00,rvs,29.17
2022-02-12T05:14:00,rvs,30.66
2022-02-12T05:15:00,rvs,31.23
2022-02-12T05:16:00,rvs,32.52
2022-02-12T05:17:00,rvs,17.00
2022-02-12T05:18:00,rvs,18.07
2022-02-12T05:19:00,rvs,18.95
2022-02-12T05:20:00,rvs,19.99
2022-02-12T05:21:00,rvs,22.05
2022-02-12T05:22:00,rvs,21.50
2022-02-12T05:23:00,rvs,15.47
2022-02-12T05:24:00,rvs,15.24
2022-02-12T05:25:00,rvs,15.21
2022-02-12T05:26:00,rvs,15.30
2022-02-12T05:27:00,rvs,14.10
2022-02-12T05:28:00,rvs,13.46
2022-02-12T05:29:00,rvs,8.80
2022-02-12T05:30:00,rvs,8.83
2022-02-12T05:31:00,rvs,9.72
2022-02-12T05:32:00,rvs,8.82
2022-02-12T05:33:00,rvs,8.85
2022-02-12T05:34:00,rvs,9.53
2022-02-12T05:35:00,rvs,18.32
2022-02-12T05:36:00,rvs,18.03
2022-02-12T05:37:00,rvs,17.80
2022-02-12T05:38:00,rvs,12.97
2022-02-12T05:39:00,rvs,15.23
2022-02-12T05:40:00,rvs,17.03
2022-02-12T05:41:00,rvs,13.10
2022-02-12T05:42:00,rvs,14.78
2022-02-12T05:43:00,rvs,12.01
2022-02-12T05:44:00,rvs,17.89
2022-02-12T05:45:00,rvs,18.71
2022-02-12T05:46:00,rvs,8.42
2022-02-12T05:47:00,rvs,8.37
2022-02-12T05:48:00,rvs,8.27
2022-02-12T05:49:00,rvs,8.59
2022-02-12T05:50:00,rvs,9.38
2022-02-12T05:51:00,rvs,12.82
2022-02-12T05:52:00,rvs,13.40
2022-02-12T05:53:00,rvs,14.27
2022-02-12T05:54:00,rvs,16.09
2022-02-12T05:55:00,rvs,15.30
2022-02-12T05:56:00,rvs,14.24
2022-02-12T05:57:00,rvs,13.69
2022-02-12T05:58:00,rvs,14.50
2022-02-12T05:59:00,rvs,15.58
2022-02-12T06:00:00,rvs,14.97
2022-02-12T06:01:00,rvs,14.41
2022-02-12T06:02:00,rvs,15.22
2022-02-12T06:03:00,rvs,14.48
2022-02-12T06:04:00,rvs,18.26
2022-02-12T06:05:00,rvs,23.28
2022-02-12T06:06:00,rvs,28.77
2022-02-12T06:07:00,rvs,33.05
2022-02-12T06:08:00,rvs,33.64
2022-02-12T06:09:00,rvs,36.28
2022-02-12T06:10:00,rvs,33.23
2022-02-12T06:11:00,rvs,35.54
2022-02-12T06:12:00,rvs,38.14
2022-02-12T06:13:00,rvs,36.67
2022-02-12T06:14:00,rvs,37.34
2022-02-12T06:15:00,rvs,39.16
2022-02-12T06:16:00,rvs,42.63
2022-02-12T06:17:00,rvs,42.40
2022-02-12T06:18:00,rvs,36.93
2022-02-12T06:19:00,rvs,38.27
2022-02-12T06:20:00,rvs,47.71
2022-02-12T06:21:00,rvs,47.04
2022-02-12T06:22:00,rvs,43.63
2022-02-12T06:23:00,rvs,21.72
2022-02-12T06:24:00,rvs,32.33
2022-02-12T06:25:00,rvs,20.99
2022-02-12T06:26:00,rvs,24.21
2022-02-12T06:27:00,rvs,32.40
2022-02-12T06:28:00,rvs,20.68
2022-02-12T06:29:00,rvs,37.81
2022-02-12T06:30:00,rvs,41.20
2022-02-12T06:31:00,rvs,36.13
2022-02-12T06:32:00,rvs,43.04
2022-02-12T06:33:00,rvs,38.20
2022-02-12T06:34:00,rvs,47.54
2022-02-12T06:35:00,rvs,46.68
2022-02-12T06:36:00,rvs,39.49
2022-02-12T06:37:00,rvs,38.00
2022-02-12T06:38:00,rvs,33.88
2022-02-12T06:39:00,rvs,42.01
2022-02-12T06:40:00,rvs,23.29
2022-02-12T06:41:00,rvs,16.92
2022-02-12T06:42:00,rvs,19.73
2022-02-12T06:43:00,rvs,22.25
2022-02-12T06:44:00,rvs,24.58
2022-02-12T06:45:00,rvs,24.69
2022-02-12T06:46:00,rvs,30.48
2022-02-12T06:47:00,rvs,29.87
2022-02-12T06:48:00,rvs,33.54
2022-02-12T06:49:00,rvs,34.46
2022-02-12T06:50:00,rvs,33.76
2022-02-12T06:51:00,rvs,22.51
2022-02-12T06:52:00,rvs,23.91
2022-02-12T06:53:00,rvs,24.20
2022-02-12T06:54:00,rvs,23.36
2022-02-12T06:55:00,rvs,17.18
2022-02-12T06:56:00,rvs,20.43
2022-02-12T06:57:00,rvs,19.75
2022-02-12T06:58:00,rvs,20.27
2022-02-12T06:59:00,rvs,11.36
2022-02-12T07:00:00,rvs,11.67
2022-02-12T07:01:00,rvs,12.40
2022-02-12T07:02:00,rvs,13.18
2022-02-12T07:03:00,rvs,14.03
2022-02-12T07:04:00,rvs,15.34
2022-02-12T07:05:00,rvs,8.81
2022-02-12T07:06:00,rvs,8.74
2022-02-12T07:07:00,rvs,8.53
2022-02-12T07:08:00,rvs,8.62
2022-02-12T07:09:00,rvs,8.60
2022-02-12T07:10:00,rvs,8.77
2022-02-12T07:11:00,rvs,12.08
2022-02-12T07:12:00,rvs,13.27
2022-02-12T07:13:00,rvs,13.37
2022-02-12T07:14:00,rvs,13.55
2022-02-12T07:15:00,rvs,14.12
2022-02-12T07:16:00,rvs,13.21
2022-02-12T07:17:00,rvs,13.34
2022-02-12T07:18:00,rvs,13.46
2022-02-12T07:19:00,rvs,14.37
2022-02-12T07:20:00,rvs,13.77
2022-02-12T07:21:00,rvs,13.10
2022-02-12T07:22:00,rvs,12.97
2022-02-12T07:23:00,rvs,13.41
2022-02-12T07:24:00,rvs,11.75
2022-02-12T07:25:00,rvs,13.93
2022-02-12T07:26:00,rvs,15.09
2022-02-12T07:27:00,rvs,14.85
2022-02-12T07:28:00,rvs,17.37
2022-02-12T07:29:00,rvs,31.38
2022-02-12T07:30:00,rvs,32.32
2022-02-12T07:31:00,rvs,32.59
2022-02-12T07:32:00,rvs,22.03
2022-02-12T07:33:00,rvs,14.83
2022-02-12T07:34:00,rvs,15.24
2022-02-12T07:35:00,rvs,14.02
2022-02-12T07:36:00,rvs,13.68
2022-02-12T07:37:00,rvs,14.09
2022-02-12T07:38:00,rvs,13.80
2022-02-12T07:39:00,rvs,13.20
2022-02-12T07:40:00,rvs,13.47
2022-02-12T07:41:00,rvs,14.18
2022-02-12T07:42:00,rvs,13.80
2022-02-12T07:43:00,rvs,12.71
2022-02-12T07:44:00,rvs,12.47
2022-02-12T07:45:00,rvs,12.77
2022-02-12T07:46:00,rvs,14.24
2022-02-12T07:47:00,rvs,14.42
2022-02-12T07:48:00,rvs,15.60
2022-02-12T07:49:00,rvs,16.51
2022-02-12T07:50:00,rvs,17.96
2022-02-12T07:51:00,rvs,14.07
2022-02-12T07:52:00,rvs,16.48
2022-02-12T07:53:00,rvs,14.96
2022-02-12T07:54:00,rvs,15.34
2022-02-12T07:55:00,rvs,16.99
2022-02-12T07:56:00,rvs,17.74
2022-02-12T07:57:00,rvs,19.02
2022-02-12T07:58:00,rvs,19.98
2022-02-12T07:59:00,rvs,20.27
2022-02-12T08:00:00,rvs,20.49
2022-02-12T08:01:00,rvs,24.66
2022-02-12T08:02:00,rvs,19.45
2022-02-12T08:03:00,rvs,19.51
2022-02-12T08:04:00,rvs,14.33
2022-02-12T08:05:00,rvs,14.30
2022-02-12T08:06:00,rvs,14.76
2022-02-12T08:07:00,rvs,11.30
2022-02-12T08:08:00,rvs,12.01
2022-02-12T08:09:00,rvs,13.08
2022-02-12T08:10:00,rvs,14.01
2022-02-12T08:11:00,rvs,16.42
2022-02-12T08:12:00,rvs,17.23
2022-02-12T08:13:00,rvs,16.41
2022-02-12T08:14:00,rvs,19.24
2022-02-12T08:15:00,rvs,21.03
2022-02-12T08:16:00,rvs,23.77
2022-02-12T08:17:00,rvs,27.32
2022-02-12T08:18:00,rvs,24.26
2022-02-12T08:19:00,rvs,23.03
2022-02-12T08:20:00,rvs,21.41
2022-02-12T08:21:00,rvs,20.91
2022-02-12T08:22:00,rvs,21.82
2022-02-12T08:23:00,rvs,23.95
2022-02-12T08:24:00,rvs,23.59
2022-02-12T08:25:00,rvs,25.01
2022-02-12T08:26:00,rvs,25.52
2022-02-12T08:27:00,rvs,28.46
2022-02-12T08:28:00,rvs,25.45
2022-02-12T08:29:00,rvs,17.06
2022-02-12T08:30:00,rvs,17.84
2022-02-12T08:31:00,rvs,18.87
2022-02-12T08:32:00,rvs,22.41
2022-02-12T08:33:00,rvs,19.12
2022-02-12T08:34:00,rvs,21.91
2022-02-12T08:35:00,rvs,23.91
2022-02-12T08:36:00,rvs,23.68
2022-02-12T08:37:00,rvs,23.05
2022-02-12T08:38:00,rvs,21.05
2022-02-12T08:39:00,rvs,20.76
2022-02-12T08:40:00,rvs,20.71
2022-02-12T08:41:00,rvs,21.51
2022-02-12T08:42:00,rvs,24.48
2022-02-12T08:43:00,rvs,24.81
2022-02-12T08:44:00,rvs,25.56
2022-02-12T08:45:00,rvs,26.54
2022-02-12T08:46:00,rvs,26.22
2022-02-12T08:47:00,rvs,24.84
2022-02-12T08:48:00,rvs,24.23
2022-02-12T08:49:00,rvs,23.53
2022-02-12T08:50:00,rvs,23.29
2022-02-12T08:51:00,rvs,23.23
2022-02-12T08:52:00,rvs,24.29
2022-02-12T08:53:00,rvs,22.87
2022-02-12T08:54:00,rvs,17.25
2022-02-12T08:55:00,rvs,20.83
2022-02-12T08:56:00,rvs,38.60
2022-02-12T08:57:00,rvs,41.13
2022-02-12T08:58:00,rvs,42.80
2022-02-12T08:59:00,rvs,44.51
2022-02-12T09:00:00,rvs,45.46
2022-02-12T09:01:00,rvs,46.15
2022-02-12T09:02:00,rvs,54.13
2022-02-12T09:03:00,rvs,57.59
2022-02-12T09:04:00,rvs,60.00
2022-02-12T09:05:00,rvs,62.34
2022-02-12T09:06:00,rvs,32.92
2022-02-12T09:07:00,rvs,35.51
2022-02-12T09:08:00,rvs,33.93
2022-02-12T09:09:00,rvs,25.85
2022-02-12T09:10:00,rvs,20.99
2022-02-12T09:11:00,rvs,21.37
2022-02-12T09:12:00,rvs,20.56
2022-02-12T09:13:00,rvs,18.28
2022-02-12T09:14:00,rvs,18.30
2022-02-12T09:15:00,rvs,21.47
2022-02-12T09:16:00,rvs,30.15
2022-02-12T09:17:00,rvs,31.36
2022-02-12T09:18:00,rvs,35.90
2022-02-12T09:19:00,rvs,32.76
2022-02-12T09:20:00,rvs,36.23
2022-02-12T09:21:00,rvs,34.59
2022-02-12T09:22:00,rvs,27.91
2022-02-12T09:23:00,rvs,27.72
2022-02-12T09:24:00,rvs,32.40
2022-02-12T09:25:00,rvs,30.83
2022-02-12T09:26:00,rvs,30.56
2022-02-12T09:27:00,rvs,28.98
2022-02-12T09:28:00,rvs,25.21
2022-02-12T09:29:00,rvs,22.99
2022-02-12T09:30:00,rvs,23.82
2022-02-12T09:31:00,rvs,23.50
2022-02-12T09:32:00,rvs,23.40
2022-02-12T09:33:00,rvs,23.49
2022-02-12T09:34:00,rvs,24.20
2022-02-12T09:35:00,rvs,23.76
2022-02-12T09:36:00,rvs,23.50
2022-02-12T09:37:00,rvs,19.30
2022-02-12T09:38:00,rvs,18.91
2022-02-12T09:39:00,rvs,18.66
2022-02-12T09:40:00,rvs,18.85
2022-02-12T09:41:00,rvs,13.38
2022-02-12T09:42:00,rvs,13.16
2022-02-12T09:43:00,rvs,7.69
2022-02-12T09:44:00,rvs,10.21
2022-02-12T09:45:00,rvs,11.88
2022-02-12T09:46:00,rvs,12.92
2022-02-12T09:47:00,rvs,14.02
2022-02-12T09:48:00,rvs,16.59
2022-02-12T09:49:00,rvs,15.26
2022-02-12T09:50:00,rvs,15.14
2022-02-12T09:51:00,rvs,14.57
2022-02-12T09:52:00,rvs,14.31
2022-02-12T09:53:00,rvs,14.67
2022-02-12T09:54:00,rvs,14.30
2022-02-12T09:55:00,rvs,14.15
2022-02-12T09:56:00,rvs,14.17
2022-02-12T09:57:00,rvs,14.57
2022-02-12T09:58:00,rvs,17.16
2022-02-12T09:59:00,rvs,19.14
2022-02-12T10:00:00,rvs,21.14
2022-02-12T10:01:00,rvs,21.62
2022-02-12T10:02:00,rvs,19.38
2022-02-12T10:03:00,rvs,15.85
2022-02-12T10:04:00,rvs,17.89
2022-02-12T10:05:00,rvs,17.76
2022-02-12T10:06:00,rvs,15.74
2022-02-12T10:07:00,rvs,15.76
2022-02-12T10:08:00,rvs,15.71
2022-02-12T10:09:00,rvs,14.87
2022-02-12T10:10:00,rvs,14.12
2022-02-12T10:11:00,rvs,14.03
2022-02-12T10:12:00,rvs,13.54
2022-02-12T10:13:00,rvs,13.57
2022-02-12T10:14:00,rvs,16.14
2022-02-12T10:15:00,rvs,17.74
2022-02-12T10:16:00,rvs,18.16
2022-02-12T10:17:00,rvs,18.84
2022-02-12T10:18:00,rvs,18.98
2022-02-12T10:19:00,rvs,17.49
2022-02-12T10:20:00,rvs,17.85
2022-02-12T10:21:00,rvs,13.28
2022-02-12T10:22:00,rvs,13.29
2022-02-12T10:23:00,rvs,13.51
2022-02-12T10:24:00,rvs,12.99
2022-02-12T10:25:00,rvs,13.30
2022-02-12T10:26:00,rvs,15.86
2022-02-12T10:27:00,rvs,16.88
2022-02-12T10:28:00,rvs,19.23
2022-02-12T10:29:00,rvs,33.43
2022-02-12T10:30:00,rvs,39.34
2022-02-12T10:31:00,rvs,35.81
2022-02-12T10:32:00,rvs,36.51
2022-02-12T10:33:00,rvs,41.36
2022-02-12T10:34:00,rvs,28.08
2022-02-12T10:35:00,rvs,31.11
2022-02-12T10:36:00,rvs,29.88
2022-02-12T10:37:00,rvs,30.48
2022-02-12T10:38:00,rvs,31.24
2022-02-12T10:39:00,rvs,33.56
2022-02-12T10:40:00,rvs,34.66
2022-02-12T10:41:00,rvs,33.48
2022-02-12T10:42:00,rvs,34.55
2022-02-12T10:43:00,rvs,34.41
2022-02-12T10:44:00,rvs,33.13
2022-02-12T10:45:00,rvs,32.01
2022-02-12T10:46:00,rvs,32.76
2022-02-12T10:47:00,rvs,26.01
2022-02-12T10:48:00,rvs,19.50
2022-02-12T10:49:00,rvs,24.23
2022-02-12T10:50:00,rvs,24.19
2022-02-12T10:51:00,rvs,24.16
2022-02-12T10:52:00,rvs,20.62
2022-02-12T10:53:00,rvs,19.17
2022-02-12T10:54:00,rvs,13.47
2022-02-12T10:55:00,rvs,12.81
2022-02-12T10:56:00,rvs,30.59
2022-02-12T10:57:00,rvs,35.59
2022-02-12T10:58:00,rvs,38.01
2022-02-12T10:59:00,rvs,38.73
2022-02-12T11:00:00,rvs,20.86
2022-02-12T11:01:00,rvs,18.59
2022-02-12T11:02:00,rvs,17.68
2022-02-12T11:03:00,rvs,18.75
2022-02-12T11:04:00,rvs,14.77
2022-02-12T11:05:00,rvs,14.51
2022-02-12T11:06:00,rvs,16.52
2022-02-12T11:07:00,rvs,17.44
2022-02-12T11:08:00,rvs,19.36
2022-02-12T11:09:00,rvs,20.03
2022-02-12T11:10:00,rvs,24.70
2022-02-12T11:11:00,rvs,25.53
2022-02-12T11:12:00,rvs,26.00
2022-02-12T11:13:00,rvs,25.50
2022-02-12T11:14:00,rvs,34.08
2022-02-12T11:15:00,rvs,32.05
2022-02-12T11:16:00,rvs,34.41
2022-02-12T11:17:00,rvs,34.51
2022-02-12T11:18:00,rvs,20.18
2022-02-12T11:19:00,rvs,20.65
2022-02-12T11:20:00,rvs,19.93
2022-02-12T11:21:00,rvs,18.93
2022-02-12T11:22:00,rvs,17.65
2022-02-12T11:23:00,rvs,16.44
2022-02-12T11:24:00,rvs,16.08
2022-02-12T11:25:00,rvs,14.66
2022-02-12T11:26:00,rvs,14.67
2022-02-12T11:27:00,rvs,14.34
2022-02-12T11:28:00,rvs,14.02
2022-02-12T11:29:00,rvs,8.81
2022-02-12T11:30:00,rvs,9.92
2022-02-12T11:31:00,rvs,8.77
2022-02-12T11:32:00,rvs,9.67
2022-02-12T11:33:00,rvs,8.70
2022-02-12T11:34:00,rvs,9.10
2022-02-12T11:35:00,rvs,8.56
2022-02-12T11:36:00,rvs,8.93
2022-02-12T11:37:00,rvs,8.56
2022-02-12T11:38:00,rvs,8.57
2022-02-12T11:39:00,rvs,8.49
2022-02-12T11:40:00,rvs,8.47
2022-02-12T11:41:00,rvs,8.69
2022-02-12T11:42:00,rvs,8.68
2022-02-12T11:43:00,rvs,9.10
2022-02-12T11:44:00,rvs,8.87
2022-02-12T11:45:00,rvs,10.05
2022-02-12T11:46:00,rvs,10.28
2022-02-12T11:47:00,rvs,9.74
2022-02-12T11:48:00,rvs,9.74
2022-02-12T11:49:00,rvs,9.84
2022-02-12T11:50:00,rvs,9.69
2022-02-12T11:51:00,rvs,9.23
2022-02-12T11:52:00,rvs,9.03
2022-02-12T11:53:00,rvs,13.58
2022-02-12T11:54:00,rvs,13.82
2022-02-12T11:55:00,rvs,13.93
2022-02-12T11:56:00,rvs,9.59
2022-02-12T11:57:00,rvs,9.34
2022-02-12T11:58:00,rvs,9.51
2022-02-12T11:59:00,rvs,10.14
2022-02-12T12:00:00,rvs,13.19
2022-02-12T12:01:00,rvs,13.87
2022-02-12T12:02:00,rvs,15.16
2022-02-12T12:03:00,rvs,17.67
2022-02-12T12:04:00,rvs,19.07
2022-02-12T12:05:00,rvs,19.55
2022-02-12T12:06:00,rvs,20.37
2022-02-12T12:07:00,rvs,22.34
2022-02-12T12:08:00,rvs,20.78
2022-02-12T12:09:00,rvs,21.40
2022-02-12T12:10:00,rvs,21.48
2022-02-12T12:11:00,rvs,20.93
2022-02-12T12:12:00,rvs,20.86
2022-02-12T12:13:00,rvs,20.67
2022-02-12T12:14:00,rvs,20.15
2022-02-12T12:15:00,rvs,14.83
2022-02-12T12:16:00,rvs,14.69
2022-02-12T12:17:00,rvs,15.24
2022-02-12T12:18:00,rvs,14.80
2022-02-12T12:19:00,rvs,9.36
2022-02-12T12:20:00,rvs,10.35
2022-02-12T12:21:00,rvs,14.06
2022-02-12T12:22:00,rvs,14.87
2022-02-12T12:23:00,rvs,14.66
2022-02-12T12:24:00,rvs,15.24
2022-02-12T12:25:00,rvs,12.03
2022-02-12T12:26:00,rvs,13.22
2022-02-12T12:27:00,rvs,9.52
2022-02-12T12:28:00,rvs,8.71
2022-02-12T12:29:00,rvs,9.02
2022-02-12T12:30:00,rvs,9.00
2022-02-12T12:31:00,rvs,9.19
2022-02-12T12:32:00,rvs,10.03
2022-02-12T12:33:00,rvs,12.78
2022-02-12T12:34:00,rvs,15.96
2022-02-12T12:35:00,rvs,18.19
2022-02-12T12:36:00,rvs,21.78
2022-02-12T12:37:00,rvs,22.79
2022-02-12T12:38:00,rvs,24.33
2022-02-12T12:39:00,rvs,21.36
2022-02-12T12:40:00,rvs,25.19
2022-02-12T12:41:00,rvs,26.11
2022-02-12T12:42:00,rvs,29.03
2022-02-12T12:43:00,rvs,31.55
2022-02-12T12:44:00,rvs,32.77
2022-02-12T12:45:00,rvs,33.35
2022-02-12T12:46:00,rvs,30.27
2022-02-12T12:47:00,rvs,36.14
2022-02-12T12:48:00,rvs,37.58
2022-02-12T12:49:00,rvs,37.86
2022-02-12T12:50:00,rvs,32.31
2022-02-12T12:51:00,rvs,32.81
2022-02-12T12:52:00,rvs,33.11
2022-02-12T12:53:00,rvs,33.28
2022-02-12T12:54:00,rvs,32.32
2022-02-12T12:55:00,rvs,31.79
2022-02-12T12:56:00,rvs,31.45
2022-02-12T12:57:00,rvs,32.34
2022-02-12T12:58:00,rvs,29.59
2022-02-12T12:59:00,rvs,21.25
2022-02-12T13:00:00,rvs,23.03
2022-02-12T13:01:00,rvs,44.62
2022-02-12T13:02:00,rvs,47.55
2022-02-12T13:03:00,rvs,46.07
2022-02-12T13:04:00,rvs,46.65
2022-02-12T13:05:00,rvs,23.67
2022-02-12T13:06:00,rvs,22.07
2022-02-12T13:07:00,rvs,22.83
2022-02-12T13:08:00,rvs,23.86
2022-02-12T13:09:00,rvs,19.96
2022-02-12T13:10:00,rvs,20.60
2022-02-12T13:11:00,rvs,27.78
2022-02-12T13:12:00,rvs,28.57
2022-02-12T13:13:00,rvs,24.63
2022-02-12T13:14:00,rvs,25.32
2022-02-12T13:15:00,rvs,8.56
2022-02-12T13:16:00,rvs,8.43
2022-02-12T13:17:00,rvs,8.32
2022-02-12T13:18:00,rvs,12.60
2022-02-12T13:19:00,rvs,13.76
2022-02-12T13:20:00,rvs,14.50